Weather History for Wheaton NDB, MN

Change the Weather History Date:

Wednesday, November 21, 2012

  Actual Average Record
Temperature  
Mean Temperature 43 °F -  
Max Temperature 60 °F 36 °F 60 °F (1960)
Min Temperature 26 °F 19 °F -4 °F (1978)
Degree Days  
Heating Degree Days 22    
Moisture  
Dew Point 33 °F    
Average Humidity 69    
Maximum Humidity 93    
Minimum Humidity 42    
Precipitation  
Precipitation 0.00 in - - ()
Sea Level Pressure  
Sea Level Pressure 29.78 in    
Wind  
Wind Speed 6 mph (SE)    
Max Wind Speed 18 mph    
Max Gust Speed 24 mph    
Visibility 10 miles    
Events      
Averages and records for this station are not official NWS values.
T = Trace of Precipitation, MM = Missing Value Source: NWS Daily Summary

Daily Weather History Graph

Daily Weather History Graph

Search for Another Location

Airport:

Trip Planner

Search our weather history database for the weather conditions in past years. The results will help you decide how hot, cold, wet, or windy it might be!

Date:

Astronomy

Nov. 21, 2012 Rise Set
Actual Time 7:34 AM CST 4:49 PM CST
Civil Twilight 7:02 AM CST 5:21 PM CST
Nautical Twilight 6:25 AM CST 5:58 PM CST
Astronomical Twilight 5:49 AM CST 6:33 PM CST
Moon 1:23 PM CST 12:35 AM CST
Length of Visible Light 10h 19m
Length of Day
9h 14m
First Quarter, 62% of the Moon is Illuminated
Nov 21
First Quarter
Nov 28
Full
Dec 6
Last Quarter
Dec 13
New
Dec 19
First Quarter

Hourly Weather History & Observations

Time (CST) Temp. Windchill Dew Point Humidity Pressure Visibility Wind Dir Wind Speed Gust Speed Precip Events Conditions
12:15 AM 33.8 °F 27.7 °F 28.4 °F 81% 29.92 in 10.0 mi SE 6.9 mph - N/A   Clear
12:35 AM 30.2 °F 25.4 °F 26.6 °F 86% 29.92 in 10.0 mi SE 4.6 mph - N/A   Clear
12:55 AM 32.0 °F - 26.6 °F 80% 29.92 in 10.0 mi Calm Calm - N/A   Clear
1:15 AM 30.2 °F 26.7 °F 26.6 °F 86% 29.91 in 10.0 mi ESE 3.5 mph - N/A   Clear
1:34 AM 30.2 °F - 26.6 °F 86% 29.92 in 10.0 mi Calm Calm - N/A   Clear
1:55 AM 28.4 °F - 26.6 °F 93% 29.92 in 10.0 mi Calm Calm - N/A   Clear
2:15 AM 30.2 °F - 26.6 °F 86% 29.92 in 10.0 mi Calm Calm - N/A   Clear
2:35 AM 28.4 °F 24.6 °F 24.8 °F 86% 29.92 in 10.0 mi ESE 3.5 mph - N/A   Clear
2:55 AM 26.6 °F 17.5 °F 24.8 °F 93% 29.91 in 10.0 mi ESE 9.2 mph - N/A   Clear
3:15 AM 28.4 °F 21.2 °F 26.6 °F 93% 29.91 in 10.0 mi SE 6.9 mph - N/A   Clear
3:34 AM 28.4 °F 24.6 °F 26.6 °F 93% 29.91 in 10.0 mi South 3.5 mph - N/A   Clear
3:55 AM 30.2 °F 25.4 °F 28.4 °F 93% 29.91 in 10.0 mi South 4.6 mph - N/A   Clear
4:15 AM 30.2 °F - 26.6 °F 86% 29.91 in 10.0 mi Calm Calm - N/A   Clear
4:35 AM 28.4 °F - 26.6 °F 93% 29.91 in 10.0 mi Calm Calm - N/A   Clear
4:55 AM 32.0 °F - 28.4 °F 87% 29.91 in 10.0 mi Calm Calm - N/A   Clear
5:15 AM 28.4 °F - 24.8 °F 86% 29.91 in 10.0 mi Calm Calm - N/A   Clear
5:35 AM 28.4 °F - 26.6 °F 93% 29.90 in 10.0 mi Calm Calm - N/A   Clear
5:54 AM 28.4 °F - 26.6 °F 93% 29.91 in 10.0 mi Calm Calm - N/A   Clear
6:14 AM 28.4 °F - 26.6 °F 93% 29.90 in 10.0 mi Calm Calm - N/A   Clear
6:35 AM 28.4 °F - 26.6 °F 93% 29.91 in 10.0 mi Calm Calm - N/A   Clear
6:55 AM 28.4 °F - 26.6 °F 93% 29.91 in 10.0 mi Calm Calm - N/A   Clear
7:15 AM 28.4 °F 22.2 °F 26.6 °F 93% 29.91 in 10.0 mi South 5.8 mph - N/A   Clear
7:35 AM 35.6 °F - 30.2 °F 81% 29.91 in 10.0 mi Calm Calm - N/A   Clear
7:55 AM 30.2 °F 23.4 °F 28.4 °F 93% 29.89 in 10.0 mi ESE 6.9 mph - N/A   Clear
8:15 AM 30.2 °F 26.7 °F 28.4 °F 93% 29.90 in 10.0 mi SE 3.5 mph - N/A   Clear
8:34 AM 32.0 °F - 28.4 °F 87% 29.90 in 10.0 mi Calm Calm - N/A   Clear
8:55 AM 37.4 °F 32.8 °F 33.8 °F 87% 29.89 in 10.0 mi SSE 5.8 mph - N/A   Clear
9:15 AM 42.8 °F - 35.6 °F 76% 29.89 in 10.0 mi Calm Calm - N/A   Clear
9:35 AM 42.8 °F - 35.6 °F 76% 29.88 in 10.0 mi Calm Calm - N/A   Clear
9:55 AM 48.2 °F - 37.4 °F 66% 29.87 in 10.0 mi Calm Calm - N/A   Clear
10:15 AM 48.2 °F - 37.4 °F 66% 29.87 in 10.0 mi Calm Calm - N/A   Clear
10:35 AM 51.8 °F - 37.4 °F 58% 29.87 in 10.0 mi Calm Calm - N/A   Clear
10:55 AM 53.6 °F - 37.4 °F 54% 29.87 in 10.0 mi SE 5.8 mph - N/A   Clear
11:15 AM 53.6 °F - 37.4 °F 54% 29.86 in 10.0 mi ESE 5.8 mph - N/A   Clear
11:35 AM 53.6 °F - 37.4 °F 54% 29.85 in 10.0 mi ESE 4.6 mph - N/A   Clear
11:55 AM 55.4 °F - 37.4 °F 51% 29.84 in 10.0 mi East 6.9 mph - N/A   Clear
12:15 PM 55.4 °F - 37.4 °F 51% 29.82 in 10.0 mi East 8.1 mph - N/A   Clear
12:35 PM 57.2 °F - 39.2 °F 51% 29.80 in 10.0 mi ESE 10.4 mph - N/A   Clear
12:55 PM 59.0 °F - 37.4 °F 45% 29.79 in 10.0 mi SE 15.0 mph - N/A   Clear
1:15 PM 60.8 °F - 39.2 °F 45% 29.78 in 10.0 mi SE 12.7 mph - N/A   Clear
1:35 PM 60.8 °F - 37.4 °F 42% 29.77 in 10.0 mi SE 12.7 mph - N/A   Clear
1:55 PM 60.8 °F - 39.2 °F 45% 29.75 in 10.0 mi SE 13.8 mph - N/A   Clear
2:20 PM 60.8 °F - 39.2 °F 45% 29.73 in 10.0 mi SE 18.4 mph - N/A   Clear
2:35 PM 60.8 °F - 37.4 °F 42% 29.73 in 10.0 mi SE 17.3 mph - N/A   Clear
2:55 PM 59.0 °F - 37.4 °F 45% 29.71 in 10.0 mi SE 13.8 mph 24.2 mph N/A   Clear
3:15 PM 57.2 °F - 39.2 °F 51% 29.70 in 10.0 mi ESE 12.7 mph - N/A   Clear
3:35 PM 57.2 °F - 39.2 °F 51% 29.69 in 10.0 mi ESE 15.0 mph - N/A   Clear
3:59 PM 57.2 °F - 39.2 °F 51% 29.69 in 10.0 mi SE 13.8 mph - N/A   Clear
4:14 PM 55.4 °F - 39.2 °F 54% 29.69 in 10.0 mi SE 12.7 mph - N/A   Clear
4:35 PM 53.6 °F - 39.2 °F 58% 29.68 in 10.0 mi SE 16.1 mph - N/A   Clear
4:55 PM 53.6 °F - 37.4 °F 54% 29.68 in 10.0 mi SE 11.5 mph - N/A   Clear
5:15 PM 51.8 °F - 37.4 °F 58% 29.67 in 10.0 mi SE 12.7 mph - N/A   Clear
5:35 PM 48.2 °F - 37.4 °F 66% 29.66 in 10.0 mi SE 12.7 mph - N/A   Clear
5:55 PM 48.2 °F - 37.4 °F 66% 29.66 in 10.0 mi SE 10.4 mph - N/A   Clear
6:15 PM 48.2 °F - 37.4 °F 66% 29.65 in 10.0 mi SE 11.5 mph - N/A   Clear
6:35 PM 46.4 °F 40.7 °F 37.4 °F 71% 29.65 in 10.0 mi SE 12.7 mph - N/A   Clear
6:55 PM 46.4 °F 41.1 °F 37.4 °F 71% 29.64 in 10.0 mi SE 11.5 mph - N/A   Clear
7:15 PM 46.4 °F 40.7 °F 37.4 °F 71% 29.63 in 10.0 mi SE 12.7 mph - N/A   Clear
7:35 PM 46.4 °F 41.9 °F 37.4 °F 71% 29.63 in 10.0 mi SSE 9.2 mph - N/A   Clear
7:55 PM 48.2 °F - 37.4 °F 66% 29.61 in 10.0 mi SSE 10.4 mph - N/A   Clear
8:15 PM 48.2 °F - 35.6 °F 62% 29.61 in 10.0 mi SSE 9.2 mph - N/A   Clear
8:35 PM 51.8 °F - 35.6 °F 54% 29.60 in 10.0 mi South 8.1 mph - N/A   Clear
8:55 PM 51.8 °F - 35.6 °F 54% 29.59 in 10.0 mi South 11.5 mph - N/A   Clear
9:15 PM 53.6 °F - 35.6 °F 51% 29.59 in 10.0 mi South 12.7 mph - N/A   Clear
9:37 PM 53.6 °F - 35.6 °F 51% 29.59 in 10.0 mi South 12.7 mph - N/A   Clear
9:55 PM 53.6 °F - 35.6 °F 51% 29.58 in 10.0 mi SSE 10.4 mph - N/A   Clear
10:15 PM 51.8 °F - 33.8 °F 50% 29.58 in 10.0 mi SSE 9.2 mph - N/A   Clear
10:35 PM 50.0 °F - 33.8 °F 54% 29.57 in 10.0 mi South 6.9 mph - N/A   Clear
10:55 PM 48.2 °F - 33.8 °F 58% 29.56 in 10.0 mi South 6.9 mph - N/A   Clear
11:15 PM 51.8 °F - 33.8 °F 50% 29.56 in 10.0 mi SSW 9.2 mph - N/A   Clear
11:35 PM 50.0 °F - 33.8 °F 54% 29.56 in 10.0 mi WSW 4.6 mph - N/A   Clear
11:55 PM 46.4 °F - 33.8 °F 62% 29.56 in 10.0 mi Calm Calm - N/A   Clear